Vertical_Velocity
-2 -1 -1 -2 -1 2 -1 -5 -8 -9 -8 11 8 10 4 0 -2 -3 -0 28 -3 -8 2 18 -11 -6 -6 27 5 -7 -0 -3 -7 -7 18 12 -4 -6 -2 -5 -2 -9 18
2 -1 -0 2 2 3 -0 -2 -1 -4 -4 -11 -5 -8 1 -4 3 -4 -7 17 -0 -2 -3 -6 -3 -3 -12 -7 -4 -1 -2 2 -5 -4 -7 -12 -6 -1 -8 0 -6 1 -6
-9 1 -2 4 1 -1 3 1 0 -2 -4 -3 4 -8 -2 -1 1 8 -2 -7 10 -5 -0 1 -4 -3 -1 -2 8 4 16 -2 -4 -3 -2 2 -1 0 -3 -0 -8 2 1
-27 41 -1 -5 3 -3 1 3 1 3 1 -6 -5 9 -5 -4 -0 -5 -0 6 -3 1 -5 3 1 -3 1 -4 -4 -2 -9 -4 -1 -9 -6 -6 1 3 -6 -8 4 9 -6
-11 4 2 21 4 -3 2 3 -1 -0 2 2 -2 -5 -1 3 -5 -5 -3 -3 5 -6 6 -5 -6 -4 2 -1 1 6 2 -1 -5 -3 -5 -2 -6 12 12 -3 -11 5 -3
-2 3 -3 0 -2 10 -3 -4 6 0 -2 4 -0 -5 -7 -9 4 5 0 2 -4 -3 -6 -2 -4 3 -1 -1 -3 -5 -1 -3 -6 -5 -5 2 -2 -3 -3 -0 3 -5 -12
-3 -3 -4 -4 3 -1 5 4 -2 -2 9 -1 1 5 -2 -6 -7 -1 1 -8 -1 10 5 -5 -5 5 -2 -6 -4 1 -1 -0 -1 1 -2 -3 -7 -1 -1 -5 -0 0 -3
-1 3 0 1 -2 -4 2 2 4 3 -1 -5 0 3 2 -3 -3 0 1 2 -0 -9 -4 8 -4 -10 5 14 0 -1 -6 -2 1 3 -3 -1 -2 1 -0 3 -1 -2 -5
-4 -3 -3 3 2 3 -1 1 10 1 -3 -2 -3 -2 1 -3 1 -1 7 5 -0 -3 -5 -4 -5 -1 -8 -8 1 9 -2 -2 4 -3 -4 -3 -5 0 3 6 -9 4 -2
-3 -0 -0 -2 -3 -8 -6 2 3 9 3 6 -0 -5 -3 -5 0 -1 3 7 5 -1 3 -3 -1 -1 2 -1 -3 -1 -5 -7 0 -5 9 2 3 0 1 2 2 -7 -2
-3 -2 -2 -1 -2 1 1 -2 -6 -1 7 -3 6 -5 -3 1 0 -3 1 1 -5 5 -5 1 -5 -8 0 2 2 0 -8 11 -1 1 -3 -7 -4 7 2 -9 -9 -0 -2
-3 -2 -2 -0 -1 -3 -2 0 -1 -3 -5 6 4 -3 -2 -1 3 -2 -2 -2 3 -0 -5 11 2 -0 -0 -2 -1 -4 2 6 0 -1 -1 8 7 5 2 7 13 -0 -1
-1 -2 -2 -1 -2 -0 0 -3 -4 -3 2 -5 3 3 -10 -2 0 -2 -3 -6 -1 -4 -1 -3 -0 0 7 1 7 1 5 6 4 2 -4 -5 -3 -4 -7 -5 -1 14 -7
-4 -5 -1 -2 -0 0 -2 -1 -1 -5 8 -4 8 -4 7 5 -5 -6 18 1 9 5 -0 -3 -4 -1 1 4 4 -5 -1 2 -0 -1 -5 -5 -3 -4 -0 1 -6 -6 11
-1 -2 -5 -4 -1 -2 -1 -1 -1 -7 -1 3 1 6 -3 -4 6 17 5 12 16 7 10 7 4 -1 -0 1 0 -3 5 0 -9 1 3 2 1 1 -5 -1 -3 6 12
-6 -2 -0 -1 -5 -1 -2 -2 3 -4 -3 -1 -2 -1 -4 -3 -8 4 17 13 5 7 -1 -2 2 4 2 3 0 -1 -4 -2 -2 4 -3 -2 -2 3 6 6 3 3 7
-2 -6 -5 -3 -1 1 -1 -1 1 0 0 -6 -2 -3 2 -9 3 3 3 3 -5 2 2 6 3 -2 -4 4 0 1 6 -0 2 -4 -3 8 4 -2 2 -4 0 5 3
-2 -2 -3 -4 -5 -4 -3 -2 -3 1 -2 -6 0 -2 1 4 -2 2 2 3 -4 -8 -3 -3 -1 -3 -7 3 1 11 20 19 10 -7 7 6 -10 -4 7 4 -1 -2 -3
-2 -1 1 -3 0 -4 1 3 8 -2 -2 -5 -1 -6 -3 -0 -2 4 -1 -5 -2 -4 2 -4 -1 -3 -4 -3 3 1 -6 -12 -11 6 23 21 18 20 10 -2 -6 1 4
0 -2 -0 2 -5 -4 -1 -5 -7 2 -4 -2 -3 -6 -1 -1 3 -4 -6 -5 -2 -4 -3 4 -2 2 0 -3 0 -6 -4 2 -3 -6 -12 -0 -0 -2 -1 3 -1 1 15
-2 -0 2 -5 -2 1 -2 -8 0 5 1 1 4 -1 -0 11 -2 1 8 1 2 3 -5 1 12 8 3 3 9 -0 -5 -3 -3 -2 -2 -5 -2 -4 -3 -3 -4 1 3
-2 -0 5 2 -3 -2 1 -1 -8 2 -7 -4 -3 5 8 -12 -6 -1 -6 -4 -4 -4 7 -2 -3 -3 -2 5 9 11 -5 -2 0 1 -2 -0 -0 -0 2 2 -2 -1 -0
3 -0 0 1 2 0 1 -0 -2 -4 -1 -2 -6 -7 0 15 -3 -3 -1 -2 11 -4 5 0 -4 1 2 9 -2 5 8 13 -4 -10 2 0 -4 -7 2 -0 -2 -3 -2
0 -1 0 1 -0 5 6 5 3 -2 -2 4 -3 -2 -10 -7 11 -11 -9 7 11 1 -3 -0 -1 -2 8 6 2 2 3 3 10 13 -0 -6 -5 2 -0 1 1 2 1
-2 -2 -1 0 1 2 0 -1 -3 -9 6 7 4 -6 -3 -0 20 8 18 -2 0 1 -2 -2 -1 1 1 1 -11 -0 6 4 4 -1 2 -2 -3 -3 10 5 1 4 1
-6 -2 0 -1 0 0 -0 -0 -4 -4 -5 1 5 -6 -5 -1 -13 1 22 -2 -1 -1 0 2 -7 -3 3 2 -1 -2 5 0 -3 -7 -7 7 13 10 -2 -5 -2 -0 -0
Height
1571 1575 1578 1580 1584 1585 1588 1591 1593 1595 1596 1596 1599 1602 1605 1607 1608 1608 1608 1610 1611 1612 1613 1615 1615 1615 1617 1619 1620 1620 1620 1621 1620 1618 1617 1617 1614 1613 1612 1609 1608 1607 1606
1568 1571 1574 1577 1580 1583 1584 1587 1590 1592 1594 1596 1598 1600 1602 1604 1606 1606 1608 1609 1610 1611 1612 1612 1614 1615 1615 1615 1616 1616 1617 1616 1617 1616 1616 1614 1614 1612 1610 1607 1607 1607 1605
1562 1566 1570 1573 1576 1579 1582 1583 1586 1587 1590 1593 1595 1597 1599 1601 1602 1604 1605 1606 1608 1609 1610 1610 1611 1612 1612 1614 1614 1614 1614 1613 1613 1613 1613 1613 1612 1611 1610 1607 1606 1605 1603
1553 1557 1565 1568 1572 1574 1578 1580 1582 1583 1585 1587 1591 1594 1595 1597 1599 1600 1601 1602 1604 1606 1607 1607 1608 1608 1609 1609 1610 1610 1610 1610 1610 1610 1609 1609 1609 1608 1607 1606 1605 1604 1602
1549 1555 1561 1564 1566 1568 1573 1576 1578 1580 1580 1582 1585 1589 1592 1594 1596 1597 1599 1599 1599 1602 1603 1603 1604 1605 1605 1606 1607 1607 1607 1607 1607 1607 1606 1605 1605 1604 1603 1602 1601 1600 1598
1548 1550 1553 1558 1560 1564 1567 1570 1572 1574 1576 1578 1579 1582 1585 1588 1591 1593 1594 1595 1596 1597 1598 1599 1600 1600 1600 1600 1601 1602 1602 1602 1601 1601 1602 1601 1600 1600 1600 1599 1598 1596 1593
1549 1551 1551 1552 1556 1559 1561 1564 1565 1567 1571 1572 1574 1576 1577 1579 1583 1586 1588 1589 1591 1592 1592 1594 1595 1595 1595 1595 1595 1596 1597 1596 1596 1596 1595 1596 1595 1596 1596 1594 1593 1592 1589
1549 1549 1549 1548 1550 1553 1556 1557 1559 1561 1563 1565 1567 1568 1570 1572 1574 1577 1580 1581 1583 1585 1586 1587 1588 1589 1590 1591 1590 1591 1590 1590 1590 1590 1589 1590 1590 1590 1590 1589 1588 1585 1584
1550 1549 1548 1546 1546 1548 1548 1551 1554 1555 1556 1557 1559 1561 1562 1563 1566 1569 1572 1574 1574 1575 1576 1578 1580 1581 1582 1585 1586 1586 1585 1584 1586 1584 1583 1583 1583 1584 1585 1584 1584 1583 1580
1547 1546 1545 1545 1545 1545 1545 1544 1545 1548 1550 1551 1550 1552 1554 1555 1557 1559 1563 1566 1567 1566 1567 1567 1569 1570 1573 1575 1577 1578 1578 1577 1580 1580 1579 1577 1577 1577 1577 1577 1576 1574 1575
1544 1543 1542 1542 1542 1542 1542 1542 1542 1541 1542 1543 1542 1542 1544 1547 1548 1550 1552 1554 1556 1559 1559 1560 1559 1559 1562 1565 1567 1568 1567 1571 1572 1572 1572 1571 1570 1571 1570 1568 1568 1567 1566
1540 1539 1539 1538 1538 1538 1537 1537 1537 1537 1537 1535 1534 1533 1536 1537 1540 1542 1543 1544 1546 1548 1550 1553 1554 1555 1555 1556 1557 1557 1560 1562 1563 1563 1563 1563 1563 1563 1564 1564 1561 1559 1558
1536 1534 1533 1532 1532 1532 1531 1531 1532 1532 1530 1527 1528 1525 1527 1529 1531 1533 1534 1534 1536 1538 1539 1541 1545 1546 1547 1547 1548 1549 1551 1552 1551 1551 1550 1551 1553 1554 1555 1556 1556 1553 1551
1529 1527 1526 1525 1525 1524 1524 1524 1524 1525 1524 1522 1520 1519 1520 1522 1523 1524 1527 1525 1527 1529 1530 1531 1533 1535 1537 1538 1538 1539 1540 1540 1540 1538 1538 1539 1543 1545 1545 1546 1546 1546 1546
1523 1521 1520 1519 1518 1517 1517 1517 1516 1516 1516 1515 1515 1515 1512 1513 1515 1516 1515 1517 1519 1520 1521 1521 1521 1522 1524 1525 1528 1529 1529 1528 1528 1528 1529 1530 1533 1534 1534 1536 1537 1537 1536
1517 1516 1515 1513 1512 1512 1511 1509 1508 1506 1505 1506 1505 1506 1506 1506 1507 1506 1508 1508 1510 1514 1515 1515 1514 1515 1516 1517 1518 1519 1520 1520 1522 1522 1521 1521 1523 1525 1526 1527 1529 1529 1528
1511 1509 1507 1505 1505 1505 1503 1502 1500 1500 1498 1497 1497 1498 1499 1499 1500 1501 1500 1501 1502 1503 1503 1505 1506 1507 1508 1509 1510 1511 1512 1512 1513 1513 1515 1517 1517 1518 1519 1519 1520 1521 1520
1503 1501 1500 1497 1496 1496 1496 1494 1493 1491 1490 1489 1490 1490 1491 1491 1491 1492 1493 1491 1491 1492 1493 1494 1496 1497 1498 1500 1501 1502 1503 1505 1506 1508 1509 1509 1510 1511 1512 1512 1512 1512 1512
1495 1493 1491 1489 1488 1487 1486 1484 1484 1483 1481 1480 1480 1481 1482 1484 1484 1483 1483 1482 1482 1483 1484 1483 1483 1485 1486 1488 1490 1492 1493 1495 1498 1499 1500 1500 1501 1502 1502 1503 1504 1504 1505
1486 1484 1482 1480 1478 1477 1477 1477 1476 1475 1473 1472 1471 1471 1474 1476 1475 1473 1473 1473 1474 1473 1474 1474 1472 1472 1474 1477 1479 1481 1484 1484 1486 1488 1490 1492 1492 1492 1493 1494 1494 1495 1496
1478 1475 1473 1471 1469 1467 1467 1467 1466 1466 1465 1463 1463 1464 1465 1466 1466 1466 1467 1466 1465 1464 1465 1465 1465 1464 1465 1467 1468 1470 1473 1474 1475 1476 1478 1481 1483 1484 1483 1484 1484 1486 1486
1470 1466 1463 1461 1458 1456 1456 1456 1456 1455 1455 1454 1454 1455 1455 1456 1455 1456 1457 1458 1457 1456 1455 1453 1454 1456 1458 1459 1461 1461 1463 1464 1465 1467 1469 1470 1472 1473 1473 1473 1473 1473 1472
1462 1458 1453 1450 1448 1446 1444 1444 1443 1443 1443 1443 1444 1444 1445 1445 1445 1447 1448 1449 1449 1445 1445 1443 1444 1446 1448 1448 1451 1453 1453 1453 1453 1457 1459 1461 1462 1463 1463 1462 1463 1464 1463
1453 1449 1445 1440 1437 1435 1434 1432 1432 1431 1431 1431 1431 1432 1432 1433 1435 1435 1436 1439 1435 1433 1434 1435 1435 1436 1436 1438 1439 1444 1443 1441 1443 1444 1447 1450 1452 1452 1451 1451 1451 1452 1452
1447 1442 1437 1432 1428 1425 1423 1421 1420 1420 1419 1419 1418 1418 1420 1421 1424 1425 1425 1421 1422 1422 1424 1426 1424 1426 1425 1426 1427 1431 1430 1428 1431 1433 1435 1438 1439 1440 1439 1439 1441 1441 1441
1443 1437 1432 1425 1420 1415 1412 1409 1408 1407 1406 1407 1406 1406 1407 1407 1409 1410 1409 1405 1411 1411 1413 1413 1415 1416 1416 1416 1417 1419 1418 1418 1420 1423 1426 1427 1425 1424 1425 1427 1430 1431 1432